Location: Widewater Village at Stafford
(38.4893°N, 77.3783°W)
Time: 21:27:25
(UTC+00:00)

ISS - Visible Passes

Search period start: 02 December 2023 00:00
Search period end: 12 December 2023 00:00
Orbit: 416 x 417 km, 51.6° (Epoch: 02 December)

Date Brightness Start Highest point End Pass type
(mag) Time Alt. Az. Time Alt. Az. Time Alt. Az.
02 Dec -2.3 22:43:11 10° NNW 22:45:53 22° NNE 22:47:12 18° ENE visible
03 Dec -0.7 00:19:33 10° WNW 00:20:08 14° WNW 00:20:08 14° WNW visible
03 Dec -3.9 23:30:59 10° NW 23:34:18 87° NW 23:34:18 87° NW visible
04 Dec -3.6 22:42:32 10° NW 22:45:48 50° NE 22:48:45 12° ESE visible
05 Dec -0.7 00:20:08 10° W 00:21:43 15° WSW 00:21:43 15° WSW visible
05 Dec -1.7 23:30:54 10° WNW 23:33:50 28° SW 23:36:36 11° SSE visible
06 Dec -2.9 22:42:02 10° WNW 22:45:19 53° SW 22:48:35 10° SE visible
08 Dec -0.6 22:42:08 10° W 22:44:26 17° SW 22:46:43 10° S visible
